TimeEDT,TemperatureF,Dew PointF,Humidity,Sea Level PressureIn,VisibilityMPH,Wind Direction,Wind SpeedMPH,Gust SpeedMPH,PrecipitationIn,Events,Conditions,WindDirDegrees,DateUTC
12:40 AM,77.0,69.8,78,30.02,10.0,ESE,13.8,-,N/A,,Mostly Cloudy,120,2013-04-11 04:40:00
12:53 AM,77.0,70.0,79,30.02,10.0,SE,11.5,21.9,N/A,,Mostly Cloudy,130,2013-04-11 04:53:00
1:53 AM,77.0,70.0,79,30.00,10.0,SE,11.5,20.7,N/A,,Mostly Cloudy,130,2013-04-11 05:53:00
2:21 AM,77.0,69.8,78,29.99,10.0,ESE,12.7,-,N/A,,Mostly Cloudy,120,2013-04-11 06:21:00
2:53 AM,75.9,70.0,82,29.98,10.0,ESE,10.4,20.7,N/A,,Mostly Cloudy,120,2013-04-11 06:53:00
3:00 AM,75.2,69.8,83,29.97,10.0,ESE,12.7,20.7,N/A,,Scattered Clouds,120,2013-04-11 07:00:00
3:53 AM,77.0,70.0,79,29.97,10.0,ESE,15.0,-,N/A,,Scattered Clouds,120,2013-04-11 07:53:00
4:21 AM,77.0,69.8,78,29.96,10.0,ESE,12.7,20.7,N/A,,Overcast,120,2013-04-11 08:21:00
4:53 AM,75.9,70.0,82,29.96,10.0,ESE,12.7,21.9,N/A,,Mostly Cloudy,120,2013-04-11 08:53:00
5:36 AM,75.2,71.6,89,29.96,10.0,ESE,12.7,-,N/A,,Mostly Cloudy,120,2013-04-11 09:36:00
5:53 AM,77.0,70.0,79,29.96,10.0,SE,13.8,21.9,N/A,,Mostly Cloudy,130,2013-04-11 09:53:00
6:46 AM,75.2,69.8,83,29.97,9.0,ESE,13.8,-,0.00,Rain,Light Rain,120,2013-04-11 10:46:00
6:53 AM,75.9,71.1,85,29.97,9.0,ESE,12.7,21.9,0.00,Rain,Light Rain,120,2013-04-11 10:53:00
7:53 AM,77.0,70.0,79,29.99,10.0,ESE,15.0,23.0,0.00,,Mostly Cloudy,120,2013-04-11 11:53:00
8:00 AM,77.0,69.8,78,29.99,10.0,SE,16.1,24.2,N/A,,Overcast,130,2013-04-11 12:00:00
8:53 AM,79.0,70.0,74,30.00,10.0,ESE,16.1,24.2,N/A,,Scattered Clouds,120,2013-04-11 12:53:00
9:53 AM,80.1,70.0,71,30.02,10.0,ESE,17.3,28.8,N/A,,Mostly Cloudy,120,2013-04-11 13:53:00
10:43 AM,80.6,69.8,70,30.02,10.0,ESE,20.7,-,N/A,,Mostly Cloudy,120,2013-04-11 14:43:00
10:53 AM,81.0,70.0,69,30.03,10.0,SE,19.6,-,N/A,,Mostly Cloudy,130,2013-04-11 14:53:00
11:53 AM,81.0,70.0,69,30.02,10.0,ESE,19.6,27.6,N/A,,Mostly Cloudy,120,2013-04-11 15:53:00
12:53 PM,82.4,69.8,66,30.01,10.0,SE,15.0,25.3,N/A,,Mostly Cloudy,130,2013-04-11 16:53:00
1:53 PM,82.9,69.1,63,29.99,10.0,ESE,18.4,26.5,N/A,,Mostly Cloudy,120,2013-04-11 17:53:00
2:53 PM,82.0,70.0,67,29.97,10.0,SE,13.8,23.0,N/A,,Mostly Cloudy,140,2013-04-11 18:53:00
3:53 PM,81.0,71.1,72,29.94,10.0,SE,13.8,-,N/A,,Mostly Cloudy,130,2013-04-11 19:53:00
4:53 PM,82.0,71.1,69,29.93,10.0,SE,16.1,21.9,N/A,,Mostly Cloudy,130,2013-04-11 20:53:00
5:53 PM,80.1,71.1,74,29.93,10.0,ESE,12.7,25.3,N/A,,Mostly Cloudy,120,2013-04-11 21:53:00
6:49 PM,80.6,71.6,74,29.91,10.0,SE,15.0,-,N/A,,Mostly Cloudy,130,2013-04-11 22:49:00
6:53 PM,80.1,71.1,74,29.91,10.0,ESE,17.3,20.7,N/A,,Mostly Cloudy,110,2013-04-11 22:53:00
7:53 PM,79.0,71.1,77,29.92,10.0,SE,10.4,-,N/A,,Scattered Clouds,130,2013-04-11 23:53:00
8:53 PM,78.1,72.0,81,29.92,10.0,SE,11.5,-,N/A,,Scattered Clouds,130,2013-04-12 00:53:00
9:53 PM,78.1,72.0,81,29.93,10.0,ESE,11.5,-,N/A,,Scattered Clouds,120,2013-04-12 01:53:00
10:53 PM,78.1,72.0,81,29.94,10.0,SE,6.9,-,N/A,,Scattered Clouds,140,2013-04-12 02:53:00
11:53 PM,78.1,73.0,84,29.93,10.0,SE,15.0,20.7,N/A,,Mostly Cloudy,130,2013-04-12 03:53:00